This demonstration page uses our WeatherBlox Daily Observations layout. Learn more.

39.92423, -83.80882

Hourly Observations for May 26, 2017

Temp ( °F °C ) Dew Point ( °F °C ) Humidity (%) Winds ( mph kmh ) Pressure ( in mb ) Visibility ( mi km ) Precip ( " mm )
12:56 am 00:56 Mostly Cloudy 58 14.4 55 12.8 90 90 W 13 20 29.74 1007 10 16.0934 0 0
1:56 am 01:56 Mostly Cloudy 57 13.9 54 12.2 90 90 W 10 17 29.76 1008 10 16.0934 0 0
2:06 am 02:06 Partly Cloudy 57 14 54 12 88 88 W 10 17 29.77 1008 10 16.0934 0 0
2:39 am 02:39 Mostly Cloudy 57 14 54 12 88 88 W 10 17 29.77 1008 10 16.0934 0 0
2:56 am 02:56 Cloudy 58 14.4 55 12.8 90 90 W 12 19 29.78 1008 8 12.87472 0 0
3:56 am 03:56 Mostly Cloudy 57 13.9 55 12.8 93 93 W 10 17 29.78 1009 7 11.26538 0 0
4:16 am 04:16 Partly Cloudy 55 13 54 12 94 94 WSW 8 13 29.8 1009 7 11.26538 0 0
4:56 am 04:56 Clear 56 13.3 54 12.2 93 93 WSW 7 11 29.8 1009 7 11.26538 0 0
5:56 am 05:56 Clear 55 12.8 53 11.7 93 93 WSW 9 15 29.82 1010 8 12.87472 0 0
6:56 am 06:56 Sunny with Mist and Fog 55 12.8 53 11.7 93 93 WSW 9 15 29.85 1011 5 8.0467 0 0
7:56 am 07:56 Sunny 58 14.4 54 12.2 87 87 W 9 15 29.88 1012 10 16.0934 0 0
8:56 am 08:56 Sunny 61 16.1 54 12.2 78 78 WNW 10 17 29.89 1012 10 16.0934 0 0
9:56 am 09:56 Sunny 65 18.3 54 12.2 68 68 W 12 19 29.9 1013 10 16.0934 0 0
10:56 am 10:56 Mostly Sunny 68 20 56 13.3 65 65 W 13 20 29.9 1012 10 16.0934 0 0
11:56 am 11:56 Mostly Sunny 69 20.6 56 13.3 63 63 W 14 22 29.91 1013 10 16.0934 0 0
12:56 pm 12:56 Mostly Cloudy 72 22.2 57 13.9 59 59 W 14 22 29.92 1013 10 16.0934 0 0
1:56 pm 13:56 Mostly Cloudy 72 22.2 56 13.3 57 57 W 14 22 29.89 1012 10 16.0934 0 0
2:56 pm 14:56 Partly Cloudy 72 22.2 56 13.3 57 57 W 10 17 29.89 1012 10 16.0934 0 0
3:56 pm 15:56 Mostly Sunny 72 22.2 55 12.8 55 55 WSW 9 15 29.88 1012 10 16.0934 0 0
4:56 pm 16:56 Sunny 73 22.8 56 13.3 55 55 SW 5 7 29.87 1012 10 16.0934 0 0
5:56 pm 17:56 Mostly Sunny 75 23.9 57 13.9 54 54 SSW 6 9 29.88 1012 10 16.0934 0 0
6:56 pm 18:56 Sunny 75 23.9 57 13.9 54 54 SSW 10 17 29.87 1012 10 16.0934 0 0
7:56 pm 19:56 Sunny 74 23.3 58 14.4 57 57 S 5 7 29.86 1011 10 16.0934 0 0
8:56 pm 20:56 Mostly Cloudy 71 21.7 57 13.9 61 61 S 3 6 29.85 1011 10 16.0934 0 0
10:54 pm 22:54 Cloudy with Nearby Thunderstorms 66 19 61 16 83 83 E 8 13 29.85 1011 8 12.87472 0.01 0.254
10:56 pm 22:56 Cloudy with Nearby Thunderstorms 66 18.9 61 16.1 84 84 E 7 11 29.87 1012 8 12.87472 0.01 0.254
11:38 pm 23:38 Cloudy with Heavy Thunderstorms 63 17 63 17 100 100 N 13 20 29.88 1012 5 8.0467 0.46 11.684
11:56 pm 23:56 Cloudy with Light Thunderstorms 65 18.3 62 16.7 90 90 S 9 15 29.88 1012 8 12.87472 0.61 15.494

Powered by AerisWeather